Location: Meanaryar
(48.4161°N, 4.7315°W)
Time: 08:23:33
(UTC+00:00)

Cosmos 1092 Rocket - Pass Details

Date: 19 January 2021
Orbit: 954 x 995 km, 83.0° (Epoch: 02 March)

Event Time Altitude Azimuth Distance (km) Brightness Sun altitude
Rises 21:46:10 0° 255° (WSW) 3,657 7.5 -46.7°
Reaches altitude 10° 21:50:59 10° 288° (WNW) 2,706 6.8 -47.5°
Maximum altitude 21:52:48 11° 305° (NW) 2,613 6.7 -47.7°
Drops below altitude 10° 21:54:37 10° 323° (NW) 2,704 6.8 -48.0°
Sets 21:59:27 0° 357° (N) 3,650 7.3 -48.7°
